Home > Weather > Prague > Past weeks

Flag for Czech Republic Weather for the Past 2 Weeks in Prague, Czech Republic

Now
39 °F

Passing clouds.


Feels Like: 32 °F
Forecast: 31 / 48 °F
Wind: 10 mph from Southwest

Location: Prague Ruzyne Airport

Current Time: Feb 6, 2016 at 1:31:37 AM

Latest Report: Feb 6, 2016 at 1:00 AM


Visibility: N/A

Pressure: 30.21 "Hg

Humidity: 93%

Dew point: 37 °F

Location of PragueLocation

Historic Weather in Prague — Graph

°F

Prague Temperature Yesterday

Maximum temperature yesterday: 41 °F (at 12:30 PM)
Minimum temperature yesterday: 32 °F (at 6:00 AM)
Average temperature yesterday: 36 °F

High & Low Weather Summary for the Past Weeks

 TemperatureHumidityPressure
High54 °F (Jan 27, 1:30 PM)100% (Feb 1, 9:30 AM)30.51 "Hg (Feb 1, 9:30 AM)
Low1 °F (Jan 22, 11:30 PM)50% (Jan 29, 2:00 PM)29.71 "Hg (Jan 30, 10:00 PM)
Average38 °F80%30.16 "Hg
* Reported Jan 21 11:00 PM — Feb 5 11:30 PM, Prague, Weather by CustomWeather, © 2016

Note: Actual official high and low records may vary slightly from our data, if they occured in-between our weather recording intervals... More about our weather records

Advertising

Prague Weather History for the Previous 24 Hours

 ConditionsComfort  
Time TempWeatherWind HumidityBarometerVisibility
11:30 PM
Fri, Feb 5
39 °FPassing clouds.16 mph93%30.21 "HgN/A
11:00 PM39 °FPassing clouds.17 mph93%30.21 "HgN/A
10:30 PM39 °FMostly cloudy.16 mph87%30.21 "HgN/A
10:00 PM39 °FMostly cloudy.16 mph87%30.21 "HgN/A
9:30 PM37 °FPassing clouds.16 mph93%30.21 "HgN/A
9:00 PM37 °FLight rain. Mostly cloudy.17 mph93%30.24 "HgN/A
8:30 PM37 °FLight rain. Passing clouds.17 mph87%30.24 "HgN/A
8:00 PM37 °FLight rain. Mostly cloudy.15 mph87%30.24 "HgN/A
7:30 PM37 °FOvercast.15 mph87%30.24 "HgN/A
7:00 PM37 °FOvercast.13 mph87%30.24 "HgN/A
6:30 PM37 °FLight rain. Passing clouds.15 mph81%30.24 "HgN/A
6:03 PM37 °FLight rain. Passing clouds.14 mph81%30.24 "HgN/A
5:30 PM37 °FPassing clouds.13 mph81%30.24 "HgN/A
5:00 PM37 °FPartly sunny.12 mph81%30.24 "HgN/A
4:30 PM39 °FPartly sunny.12 mph70%30.24 "HgN/A
4:00 PM37 °FScattered clouds.13 mph75%30.24 "HgN/A
3:30 PM39 °FScattered clouds.14 mph70%30.24 "HgN/A
3:00 PM39 °FScattered clouds.15 mph70%30.24 "HgN/A
2:30 PM39 °FScattered clouds.17 mph65%30.24 "HgN/A
2:00 PM41 °FScattered clouds.15 mph61%30.27 "HgN/A
1:30 PM41 °FScattered clouds.16 mph66%30.27 "HgN/A
1:00 PM41 °FPartly sunny.16 mph61%30.27 "HgN/A
12:30 PM41 °FBroken clouds.16 mph61%30.30 "HgN/A
12:00 PM39 °FBroken clouds.12 mph70%30.30 "HgN/A
11:30 AM39 °FScattered clouds.14 mph70%30.30 "HgN/A
11:00 AM37 °FPassing clouds.14 mph75%30.30 "HgN/A
10:30 AM36 °FPassing clouds.12 mph81%30.30 "HgN/A
10:00 AM36 °FPassing clouds.12 mph81%30.30 "HgN/A
9:30 AM34 °FPassing clouds.10 mph87%30.30 "HgN/A
9:00 AM34 °FPassing clouds.10 mph87%30.30 "HgN/A
8:30 AM34 °FPassing clouds.10 mph87%30.30 "HgN/A
8:00 AM32 °FPassing clouds.7 mph87%30.27 "HgN/A
7:30 AM32 °FPassing clouds.7 mph87%30.27 "HgN/A
7:00 AM32 °FPassing clouds.10 mph93%30.24 "HgN/A
6:30 AM32 °FPassing clouds.8 mph87%30.24 "HgN/A
6:00 AM32 °FPassing clouds.6 mph87%30.24 "HgN/A
5:30 AM34 °FPassing clouds.10 mph81%30.21 "HgN/A
5:00 AM34 °FPassing clouds.9 mph87%30.21 "HgN/A
4:30 AM34 °FPassing clouds.12 mph87%30.21 "HgN/A
4:00 AM34 °FPassing clouds.14 mph87%30.18 "HgN/A
3:30 AM34 °FPassing clouds.5 mph87%30.18 "HgN/A
3:00 AM34 °FPassing clouds.5 mph87%30.18 "HgN/A
2:00 AM36 °FPartly cloudy.8 mph81%30.15 "HgN/A
1:30 AM36 °FPartly cloudy.10 mph81%30.12 "HgN/A
1:00 AM34 °FPartly cloudy.7 mph93%30.12 "HgN/A
Weather by CustomWeather, © 2016

See weather overviewHow to use our weather pages